Seastreak Highlands — WDE4031 — position and weather

sailwx.info

Track history (hours):
 
Tides and Currents Weather Stations Pressure Air Temp Water Temp Dewpoint Dewpoint Depression Visibility Wind Speed Wind Dir Waves Ship Positions

Seastreak Highlands

Owner: Seastreak llc, atlantic highlands, NJ. More information available from US FCC via Universal Licensing System and Coast Guard Vessel Documentation Center.

Last reported at 2014-Nov-22 00:08 UTC. Time now 2014-Nov-22 11:39 UTC.
Position N 40°33' W 074°02'.

Length 44 m; draft 2 m.

Type: High speed craft. MMSI: 367347670.

Date/timePositionNaut miles runAvg speedWind from/ knotsBaromVisibWave heightAir tempDewpointWater temp
2014-Nov-22 00:08N 40°33' W 074°02'1220.3
2014-Nov-21 23:33N 40°45' W 073°58'14 9.8
2014-Nov-21 22:09N 40°31' W 074°02'1119.1
2014-Nov-21 21:33N 40°42' W 073°59'2 2.4
2014-Nov-21 20:32N 40°45' W 073°58'0 0.0
2014-Nov-21 19:33N 40°45' W 073°58'0 0.0
2014-Nov-21 18:32N 40°45' W 073°58'0 0.0
2014-Nov-21 17:33N 40°45' W 073°58'0 0.0
2014-Nov-21 16:25N 40°45' W 073°58'0 0.0
2014-Nov-21 15:33N 40°45' W 073°58'0 0.0
2014-Nov-21 14:33N 40°45' W 073°58'8 8.2
2014-Nov-21 13:34N 40°37' W 074°03'4 3.5
2014-Nov-21 12:31N 40°34' W 074°02'4 4.4
2014-Nov-21 11:34N 40°38' W 074°03'7 0.6
2014-Nov-21 00:13N 40°31' W 074°02'1420.6
2014-Nov-20 23:33N 40°44' W 073°58'13 8.7
2014-Nov-20 22:07N 40°32' W 074°02'1018.6
2014-Nov-20 21:34N 40°42' W 073°60'2 2.4
2014-Nov-20 20:33N 40°45' W 073°58'0 0.0
2014-Nov-20 19:33N 40°45' W 073°58'0 0.0
2014-Nov-20 18:33N 40°45' W 073°58'0 0.0
2014-Nov-20 17:33N 40°45' W 073°58'0 0.0
2014-Nov-20 16:33N 40°45' W 073°58'0 0.0
2014-Nov-20 15:33N 40°45' W 073°58'0 0.0
2014-Nov-20 14:33N 40°45' W 073°58'7 7.4
2014-Nov-20 13:33N 40°38' W 074°03'4 4.0
2014-Nov-20 12:31N 40°34' W 074°02'4 4.4
2014-Nov-20 11:33N 40°38' W 074°03'13 1.1
2014-Nov-20 00:30N 40°26' W 074°00'1920.2
2014-Nov-19 23:33N 40°45' W 073°58'2017.9
2014-Nov-19 22:26N 40°25' W 073°60'1820.2
2014-Nov-19 21:34N 40°42' W 073°59'5 1.1
2014-Nov-19 17:29N 40°47' W 073°57'0 0.0
2014-Nov-19 16:10N 40°47' W 073°57'0 0.2
2014-Nov-19 14:18N 40°46' W 073°57'1114.2
2014-Nov-19 13:34N 40°37' W 074°02'3 3.3
2014-Nov-19 12:33N 40°33' W 074°02'5 5.3
2014-Nov-19 11:34N 40°39' W 074°02'5 0.4
2014-Nov-19 00:11N 40°34' W 074°02'1117.4
2014-Nov-18 23:34N 40°44' W 073°58'1814.2
2014-Nov-18 22:18N 40°27' W 074°01'1621.0
2014-Nov-18 21:33N 40°42' W 073°60'5 2.1
2014-Nov-18 19:13N 40°47' W 073°57'0 0.0
2014-Nov-18 17:31N 40°47' W 073°57'0 0.1
2014-Nov-18 14:24N 40°46' W 073°57'1214.5
2014-Nov-18 13:34N 40°35' W 074°02'1 1.1
2014-Nov-18 12:33N 40°34' W 074°02'3 3.1
2014-Nov-18 11:34N 40°37' W 074°03'4 0.4
2014-Nov-18 00:26N 40°32' W 074°02'1214.2
2014-Nov-17 23:33N 40°44' W 073°58'3 2.7
2014-Nov-17 22:33N 40°42' W 074°00'17 8.4
2014-Nov-17 20:32N 40°25' W 074°02'0 0.0
2014-Nov-17 18:31N 40°25' W 074°02'0 0.0
2014-Nov-17 15:23N 40°25' W 074°02'2 1.9
2014-Nov-17 14:15N 40°27' W 074°02'1825.3
2014-Nov-17 13:33N 40°45' W 073°58'20 1.4
2014-Nov-16 23:15N 40°25' W 073°60'1825.2
2014-Nov-16 22:33N 40°42' W 074°00'28 3.9
2014-Nov-16 15:21N 41°10' W 073°55'2323.9
2014-Nov-16 14:24N 40°47' W 073°59'1011.4
2014-Nov-16 13:34N 40°38' W 074°03'14 1.0
2014-Nov-15 23:16N 40°25' W 073°60'1824.6
2014-Nov-15 22:33N 40°42' W 074°00'7 0.8
2014-Nov-15 14:31N 40°49' W 073°58'1111.2
2014-Nov-15 13:34N 40°39' W 074°02'13 1.0
2014-Nov-15 00:08N 40°25' W 074°01'812.6
2014-Nov-14 23:29N 40°34' W 074°02'1010.6
2014-Nov-14 22:33N 40°43' W 073°58'12 1.4
2014-Nov-14 14:23N 40°31' W 074°02'6 0.4
2014-Nov-13 23:14N 40°25' W 074°02'0 0.0
2014-Nov-13 20:18N 40°25' W 074°02'0 0.1
2014-Nov-13 19:31N 40°25' W 074°02'  
Track history (hours):
 
Tides and Currents Weather Stations Pressure Air Temp Water Temp Dewpoint Dewpoint Depression Visibility Wind Speed Wind Dir Waves Ship Positions

Seastreak Highlands

Owner: Seastreak llc, atlantic highlands, NJ. More information available from US FCC via Universal Licensing System and Coast Guard Vessel Documentation Center.

Last reported at 2014-Nov-22 00:08 UTC. Time now 2014-Nov-22 11:39 UTC.
Position N 40°33' W 074°02'.

Length 44 m; draft 2 m.

Type: High speed craft. MMSI: 367347670.

Date/timePositionNaut miles runAvg speedWind from/ knotsBaromVisibWave heightAir tempDewpointWater temp
2014-Nov-22 00:08N 40°33' W 074°02'1220.3
2014-Nov-21 23:33N 40°45' W 073°58'14 9.8
2014-Nov-21 22:09N 40°31' W 074°02'1119.1
2014-Nov-21 21:33N 40°42' W 073°59'2 2.4
2014-Nov-21 20:32N 40°45' W 073°58'0 0.0
2014-Nov-21 19:33N 40°45' W 073°58'0 0.0
2014-Nov-21 18:32N 40°45' W 073°58'0 0.0
2014-Nov-21 17:33N 40°45' W 073°58'0 0.0
2014-Nov-21 16:25N 40°45' W 073°58'0 0.0
2014-Nov-21 15:33N 40°45' W 073°58'0 0.0
2014-Nov-21 14:33N 40°45' W 073°58'8 8.2
2014-Nov-21 13:34N 40°37' W 074°03'4 3.5
2014-Nov-21 12:31N 40°34' W 074°02'4 4.4
2014-Nov-21 11:34N 40°38' W 074°03'7 0.6
2014-Nov-21 00:13N 40°31' W 074°02'1420.6
2014-Nov-20 23:33N 40°44' W 073°58'13 8.7
2014-Nov-20 22:07N 40°32' W 074°02'1018.6
2014-Nov-20 21:34N 40°42' W 073°60'2 2.4
2014-Nov-20 20:33N 40°45' W 073°58'0 0.0
2014-Nov-20 19:33N 40°45' W 073°58'0 0.0
2014-Nov-20 18:33N 40°45' W 073°58'0 0.0
2014-Nov-20 17:33N 40°45' W 073°58'0 0.0
2014-Nov-20 16:33N 40°45' W 073°58'0 0.0
2014-Nov-20 15:33N 40°45' W 073°58'0 0.0
2014-Nov-20 14:33N 40°45' W 073°58'7 7.4
2014-Nov-20 13:33N 40°38' W 074°03'4 4.0
2014-Nov-20 12:31N 40°34' W 074°02'4 4.4
2014-Nov-20 11:33N 40°38' W 074°03'13 1.1
2014-Nov-20 00:30N 40°26' W 074°00'1920.2
2014-Nov-19 23:33N 40°45' W 073°58'2017.9
2014-Nov-19 22:26N 40°25' W 073°60'1820.2
2014-Nov-19 21:34N 40°42' W 073°59'5 1.1
2014-Nov-19 17:29N 40°47' W 073°57'0 0.0
2014-Nov-19 16:10N 40°47' W 073°57'0 0.2
2014-Nov-19 14:18N 40°46' W 073°57'1114.2
2014-Nov-19 13:34N 40°37' W 074°02'3 3.3
2014-Nov-19 12:33N 40°33' W 074°02'5 5.3
2014-Nov-19 11:34N 40°39' W 074°02'5 0.4
2014-Nov-19 00:11N 40°34' W 074°02'1117.4
2014-Nov-18 23:34N 40°44' W 073°58'1814.2
2014-Nov-18 22:18N 40°27' W 074°01'1621.0
2014-Nov-18 21:33N 40°42' W 073°60'5 2.1
2014-Nov-18 19:13N 40°47' W 073°57'0 0.0
2014-Nov-18 17:31N 40°47' W 073°57'0 0.1
2014-Nov-18 14:24N 40°46' W 073°57'1214.5
2014-Nov-18 13:34N 40°35' W 074°02'1 1.1
2014-Nov-18 12:33N 40°34' W 074°02'3 3.1
2014-Nov-18 11:34N 40°37' W 074°03'4 0.4
2014-Nov-18 00:26N 40°32' W 074°02'1214.2
2014-Nov-17 23:33N 40°44' W 073°58'3 2.7
2014-Nov-17 22:33N 40°42' W 074°00'17 8.4
2014-Nov-17 20:32N 40°25' W 074°02'0 0.0
2014-Nov-17 18:31N 40°25' W 074°02'0 0.0
2014-Nov-17 15:23N 40°25' W 074°02'2 1.9
2014-Nov-17 14:15N 40°27' W 074°02'1825.3
2014-Nov-17 13:33N 40°45' W 073°58'20 1.4
2014-Nov-16 23:15N 40°25' W 073°60'1825.2
2014-Nov-16 22:33N 40°42' W 074°00'28 3.9
2014-Nov-16 15:21N 41°10' W 073°55'2323.9
2014-Nov-16 14:24N 40°47' W 073°59'1011.4
2014-Nov-16 13:34N 40°38' W 074°03'14 1.0
2014-Nov-15 23:16N 40°25' W 073°60'1824.6
2014-Nov-15 22:33N 40°42' W 074°00'7 0.8
2014-Nov-15 14:31N 40°49' W 073°58'1111.2
2014-Nov-15 13:34N 40°39' W 074°02'13 1.0
2014-Nov-15 00:08N 40°25' W 074°01'812.6
2014-Nov-14 23:29N 40°34' W 074°02'1010.6
2014-Nov-14 22:33N 40°43' W 073°58'12 1.4
2014-Nov-14 14:23N 40°31' W 074°02'6 0.4
2014-Nov-13 23:14N 40°25' W 074°02'0 0.0
2014-Nov-13 20:18N 40°25' W 074°02'0 0.1
2014-Nov-13 19:31N 40°25' W 074°02'  

Dump ship's entire track history